Tracking 20066 objects as of 7-Dec-2019
HD Live streaming from Space Station
objects crossing your sky now

FENGYUN 1C DEB

Track FENGYUN 1C DEB now!
10-day predictions


NORAD ID: 36141
Int'l Code: 1999-025DRN
Perigee: 788.4 km
Apogee: 998.8 km
Inclination: 98.5 °
Period: 102.7 minutes
Semi major axis: 7264 km
RCS: 0.0157 m2 (small)
Launch date: May 10, 1999
Source: People's Republic of China (PRC)
Launch site: Taiyaun Space Center, China (TSC)

Note: This is SATELLITE DEBRIS
aabbcc
Your satellite tracking list
Your tracking list is empty




NASA's NSSDC Master Catalog

Two Line Element Set (TLE):
1 36141U 99025DRN 19323.83642612  .00001168  00000-0  72061-3 0  9995
2 36141  98.4855 345.3871 0144748  40.7416 320.4471 14.02120360544965
Source of the keplerian elements: AFSPC